sat.trackr.live / text

‹ back to catalog

STARLINK-4109

NORAD 53268 · 2022-086AC

PAYLOAD ACTIVE UNKNOWN

§ Identity

Operator
Country
US
Launch date
2022-07-24
Launch site
AFETR
Launch vehicle
Mass (kg)
RCS (m²)

Purposes: comms

External: N2YO · Heavens-Above · Gunter

§ Orbital elements

Epoch: 2026-09-20T00:03:40.453056Z

Period
93.85 min
Inclination
53.1610°
Eccentricity
0.0001138
Mean motion
15.34383413 rev/d
Perigee alt
462.0 km
Apogee alt
463.5 km
Semi-major
6,840.9 km
B*
5.6305e-5
RAAN
27.8530°
Arg perigee
73.4721°
Mean anomaly
286.6406°
Rev number
23,059

§ Raw data

STARLINK-41091 53268U 22086AC  26263.00255154  .00001526  00000+0  56305-4 0  99992 53268  53.1610  27.8530 0001138  73.4721 286.6406 15.34383413230590

JSON: /api/v1/satellites/53268 · /tle

For live sub-satellite position, see the globe view (requires WebGL).

§ Visibility from observer

Set your observer location to see the next 7 days of passes ≥ 10°. The values pass through the URL so the page stays shareable.

No JS? Fill the form by hand. The geolocation button needs JavaScript.